Time,TemperatureF,DewpointF,PressureIn,WindDirection,WindDirectionDegrees,WindSpeedMPH,WindSpeedGustMPH,Humidity,HourlyPrecipIn,Conditions,Clouds,dailyrainin,SoftwareType,DateUTC
2013-04-23 00:02:00,42.0,9.0,-100.00,ENE,65,16.0,28.0,25,-99.99,,,-99.99,,2013-04-23 07:02:00,
2013-04-23 00:11:00,42.0,8.0,-100.00,NE,51,16.0,29.0,24,-99.99,,,-99.99,,2013-04-23 07:11:00,
2013-04-23 00:21:00,42.0,8.0,-100.00,NE,51,16.0,29.0,24,-99.99,,,-99.99,,2013-04-23 07:21:00,
2013-04-23 00:32:00,41.0,7.0,-100.00,NE,48,16.0,28.0,24,-99.99,,,-99.99,,2013-04-23 07:32:00,
2013-04-23 00:42:00,41.0,7.0,-100.00,ENE,61,15.0,26.0,24,-99.99,,,-99.99,,2013-04-23 07:42:00,
2013-04-23 00:52:00,40.0,6.0,-100.00,ENE,61,16.0,33.0,24,-99.99,,,-99.99,,2013-04-23 07:52:00,
2013-04-23 01:01:00,40.0,6.0,-100.00,ENE,64,14.0,20.0,24,-99.99,,,-99.99,,2013-04-23 08:01:00,
2013-04-23 01:11:00,39.0,6.0,-100.00,NE,55,11.0,21.0,24,-99.99,,,-99.99,,2013-04-23 08:11:00,
2013-04-23 01:21:00,39.0,5.0,-100.00,NE,54,18.0,34.0,23,-99.99,,,-99.99,,2013-04-23 08:21:00,
2013-04-23 01:31:00,39.0,4.0,-100.00,NE,56,14.0,22.0,23,-99.99,,,-99.99,,2013-04-23 08:31:00,
2013-04-23 01:42:00,39.0,5.0,-100.00,NE,56,16.0,24.0,24,-99.99,,,-99.99,,2013-04-23 08:42:00,
2013-04-23 01:52:00,39.0,5.0,-100.00,NE,55,14.0,29.0,24,-99.99,,,-99.99,,2013-04-23 08:52:00,
2013-04-23 02:01:00,39.0,4.0,-100.00,ENE,66,17.0,27.0,23,-99.99,,,-99.99,,2013-04-23 09:01:00,
2013-04-23 02:11:00,39.0,5.0,-100.00,NE,44,13.0,24.0,24,-99.99,,,-99.99,,2013-04-23 09:11:00,
2013-04-23 02:21:00,39.0,5.0,-100.00,ENE,59,19.0,28.0,24,-99.99,,,-99.99,,2013-04-23 09:21:00,
2013-04-23 02:32:00,38.0,4.0,-100.00,NE,34,13.0,25.0,24,-99.99,,,-99.99,,2013-04-23 09:32:00,
2013-04-23 02:42:00,38.0,4.0,-100.00,ENE,58,16.0,28.0,23,-99.99,,,-99.99,,2013-04-23 09:42:00,
2013-04-23 02:52:00,38.0,4.0,-100.00,NE,56,16.0,29.0,24,-99.99,,,-99.99,,2013-04-23 09:52:00,
2013-04-23 03:02:00,38.0,4.0,-100.00,NE,51,16.0,26.0,23,-99.99,,,-99.99,,2013-04-23 10:02:00,
2013-04-23 03:12:00,38.0,4.0,-100.00,ENE,59,13.0,26.0,24,-99.99,,,-99.99,,2013-04-23 10:12:00,
2013-04-23 03:22:00,38.0,4.0,-100.00,ENE,59,13.0,26.0,24,-99.99,,,-99.99,,2013-04-23 10:22:00,
2013-04-23 03:32:00,38.0,4.0,-100.00,NE,49,15.0,29.0,24,-99.99,,,-99.99,,2013-04-23 10:32:00,
2013-04-23 03:42:00,38.0,4.0,-100.00,NE,55,14.0,29.0,24,-99.99,,,-99.99,,2013-04-23 10:42:00,
2013-04-23 03:52:00,37.0,4.0,-100.00,NE,51,15.0,22.0,24,-99.99,,,-99.99,,2013-04-23 10:52:00,
2013-04-23 04:02:00,37.0,4.0,-100.00,NE,47,17.0,27.0,24,-99.99,,,-99.99,,2013-04-23 11:02:00,
2013-04-23 04:12:00,37.0,4.0,-100.00,NE,56,14.0,23.0,24,-99.99,,,-99.99,,2013-04-23 11:12:00,
2013-04-23 04:21:00,37.0,4.0,-100.00,ENE,58,13.0,19.0,24,-99.99,,,-99.99,,2013-04-23 11:21:00,
2013-04-23 04:32:00,36.0,4.0,-100.00,ENE,62,7.0,14.0,25,-99.99,,,-99.99,,2013-04-23 11:32:00,
2013-04-23 04:42:00,36.0,3.0,-100.00,NE,52,14.0,22.0,24,-99.99,,,-99.99,,2013-04-23 11:42:00,
2013-04-23 04:52:00,35.0,4.0,-100.00,NE,42,11.0,19.0,26,-99.99,,,-99.99,,2013-04-23 11:52:00,
2013-04-23 05:02:00,35.0,4.0,-100.00,NE,42,11.0,19.0,26,-99.99,,,-99.99,,2013-04-23 12:02:00,
2013-04-23 05:12:00,35.0,4.0,-100.00,NE,40,8.0,17.0,26,-99.99,,,-99.99,,2013-04-23 12:12:00,
2013-04-23 05:22:00,35.0,4.0,-100.00,NE,40,8.0,17.0,26,-99.99,,,-99.99,,2013-04-23 12:22:00,
2013-04-23 05:32:00,35.0,4.0,-100.00,NE,40,8.0,17.0,26,-99.99,,,-99.99,,2013-04-23 12:32:00,
2013-04-23 05:41:00,35.0,4.0,-100.00,NE,40,8.0,17.0,26,-99.99,,,-99.99,,2013-04-23 12:41:00,
2013-04-23 05:52:00,34.0,4.0,-100.00,ENE,71,5.0,12.0,28,-99.99,,,-99.99,,2013-04-23 12:52:00,
2013-04-23 06:01:00,34.0,4.0,-100.00,ENE,73,5.0,9.0,27,-99.99,,,-99.99,,2013-04-23 13:01:00,
2013-04-23 06:11:00,35.0,4.0,-100.00,ESE,114,3.0,7.0,26,-99.99,,,-99.99,,2013-04-23 13:11:00,
2013-04-23 06:21:00,35.0,4.0,-100.00,SE,141,5.0,14.0,26,-99.99,,,-99.99,,2013-04-23 13:21:00,
2013-04-23 06:32:00,33.0,6.0,-100.00,ESE,106,3.0,4.0,32,-99.99,,,-99.99,,2013-04-23 13:32:00,
2013-04-23 06:41:00,33.0,6.0,-100.00,ESE,106,3.0,4.0,32,-99.99,,,-99.99,,2013-04-23 13:41:00,
2013-04-23 06:52:00,33.0,7.0,-100.00,SE,145,3.0,5.0,32,-99.99,,,-99.99,,2013-04-23 13:52:00,
2013-04-23 07:01:00,33.0,7.0,-100.00,SE,145,3.0,5.0,32,-99.99,,,-99.99,,2013-04-23 14:01:00,
2013-04-23 07:11:00,33.0,6.0,-100.00,SSE,165,3.0,5.0,31,-99.99,,,-99.99,,2013-04-23 14:11:00,
2013-04-23 07:22:00,33.0,7.0,-100.00,SSE,157,3.0,5.0,33,-99.99,,,-99.99,,2013-04-23 14:22:00,
2013-04-23 07:31:00,32.0,7.0,-100.00,ESE,117,2.0,4.0,34,-99.99,,,-99.99,,2013-04-23 14:31:00,
2013-04-23 07:42:00,33.0,7.0,-100.00,SE,128,1.0,2.0,32,-99.99,,,-99.99,,2013-04-23 14:42:00,
2013-04-23 07:52:00,32.0,8.0,-100.00,East,99,3.0,5.0,35,-99.99,,,-99.99,,2013-04-23 14:52:00,
2013-04-23 08:01:00,32.0,8.0,-100.00,East,99,3.0,5.0,35,-99.99,,,-99.99,,2013-04-23 15:01:00,
2013-04-23 08:12:00,35.0,7.0,-100.00,South,186,3.0,5.0,31,-99.99,,,-99.99,,2013-04-23 15:12:00,
2013-04-23 08:21:00,33.0,8.0,-100.00,SE,126,1.0,3.0,34,-99.99,,,-99.99,,2013-04-23 15:21:00,
2013-04-23 08:32:00,33.0,8.0,-100.00,SE,126,1.0,3.0,34,-99.99,,,-99.99,,2013-04-23 15:32:00,
2013-04-23 08:42:00,35.0,12.0,-100.00,ENE,78,1.0,2.0,38,-99.99,,,-99.99,,2013-04-23 15:42:00,
2013-04-23 08:52:00,38.0,11.0,-100.00,North,359,1.0,3.0,33,-99.99,,,-99.99,,2013-04-23 15:52:00,
2013-04-23 09:02:00,38.0,8.0,-100.00,WNW,291,2.0,4.0,28,-99.99,,,-99.99,,2013-04-23 16:02:00,
2013-04-23 09:12:00,40.0,8.0,-100.00,NNW,336,1.0,3.0,26,-99.99,,,-99.99,,2013-04-23 16:12:00,
2013-04-23 09:23:00,36.0,9.0,-100.00,NE,37,2.0,3.0,32,-99.99,,,-99.99,,2013-04-23 16:23:00,
2013-04-23 09:33:00,38.0,11.0,-100.00,NW,322,2.0,5.0,32,-99.99,,,-99.99,,2013-04-23 16:33:00,
2013-04-23 09:42:00,38.0,11.0,-100.00,NW,322,2.0,5.0,32,-99.99,,,-99.99,,2013-04-23 16:42:00,
2013-04-23 09:52:00,40.0,5.0,-100.00,SE,145,2.0,3.0,23,-99.99,,,-99.99,,2013-04-23 16:52:00,
2013-04-23 10:02:00,41.0,9.0,-100.00,West,268,3.0,5.0,26,-99.99,,,-99.99,,2013-04-23 17:02:00,
2013-04-23 10:11:00,41.0,8.0,-100.00,North,10,3.0,6.0,25,-99.99,,,-99.99,,2013-04-23 17:11:00,
2013-04-23 10:22:00,41.0,11.0,-100.00,SSW,196,6.0,8.0,28,-99.99,,,-99.99,,2013-04-23 17:22:00,
2013-04-23 10:32:00,41.0,8.0,-100.00,WSW,247,4.0,7.0,25,-99.99,,,-99.99,,2013-04-23 17:32:00,
2013-04-23 10:42:00,41.0,8.0,-100.00,West,268,3.0,5.0,25,-99.99,,,-99.99,,2013-04-23 17:42:00,
2013-04-23 10:53:00,41.0,8.0,-100.00,West,268,3.0,5.0,25,-99.99,,,-99.99,,2013-04-23 17:53:00,
2013-04-23 11:02:00,41.0,8.0,-100.00,West,268,3.0,5.0,25,-99.99,,,-99.99,,2013-04-23 18:02:00,
2013-04-23 11:12:00,42.0,11.0,-100.00,NNW,347,3.0,6.0,28,-99.99,,,-99.99,,2013-04-23 18:12:00,
2013-04-23 11:22:00,43.0,14.0,-100.00,WNW,291,4.0,6.0,31,-99.99,,,-99.99,,2013-04-23 18:22:00,
2013-04-23 11:32:00,44.0,15.0,-100.00,WNW,289,4.0,5.0,30,-99.99,,,-99.99,,2013-04-23 18:32:00,
2013-04-23 11:42:00,44.0,15.0,-100.00,WNW,298,4.0,6.0,30,-99.99,,,-99.99,,2013-04-23 18:42:00,
2013-04-23 11:52:00,44.0,13.0,-100.00,WNW,299,3.0,5.0,27,-99.99,,,-99.99,,2013-04-23 18:52:00,
2013-04-23 12:02:00,44.0,14.0,-100.00,WNW,289,4.0,5.0,29,-99.99,,,-99.99,,2013-04-23 19:02:00,
2013-04-23 12:11:00,44.0,15.0,-100.00,WNW,294,4.0,5.0,30,-99.99,,,-99.99,,2013-04-23 19:11:00,
2013-04-23 12:21:00,44.0,14.0,-100.00,WNW,299,3.0,5.0,29,-99.99,,,-99.99,,2013-04-23 19:21:00,
2013-04-23 12:32:00,45.0,13.0,-100.00,WNW,288,3.0,5.0,27,-99.99,,,-99.99,,2013-04-23 19:32:00,
2013-04-23 12:42:00,46.0,16.0,-100.00,WNW,296,3.0,4.0,29,-99.99,,,-99.99,,2013-04-23 19:42:00,
2013-04-23 12:52:00,46.0,14.0,-100.00,NW,304,3.0,5.0,27,-99.99,,,-99.99,,2013-04-23 19:52:00,
2013-04-23 13:01:00,46.0,14.0,-100.00,WNW,292,4.0,5.0,27,-99.99,,,-99.99,,2013-04-23 20:01:00,
2013-04-23 13:11:00,47.0,14.0,-100.00,WNW,299,3.0,5.0,26,-99.99,,,-99.99,,2013-04-23 20:11:00,
2013-04-23 13:21:00,47.0,16.0,-100.00,NNW,333,2.0,3.0,29,-99.99,,,-99.99,,2013-04-23 20:21:00,
2013-04-23 13:31:00,47.0,17.0,-100.00,WNW,298,3.0,5.0,30,-99.99,,,-99.99,,2013-04-23 20:31:00,
2013-04-23 13:41:00,47.0,17.0,-100.00,NW,318,3.0,5.0,30,-99.99,,,-99.99,,2013-04-23 20:41:00,
2013-04-23 13:51:00,48.0,24.0,-100.00,WNW,302,3.0,5.0,39,-99.99,,,-99.99,,2013-04-23 20:51:00,
2013-04-23 14:01:00,47.0,18.0,-100.00,WNW,287,3.0,5.0,31,-99.99,,,-99.99,,2013-04-23 21:01:00,
2013-04-23 14:11:00,47.0,27.0,-100.00,NW,325,3.0,5.0,45,-99.99,,,-99.99,,2013-04-23 21:11:00,
2013-04-23 14:21:00,48.0,24.0,-100.00,WNW,302,3.0,5.0,39,-99.99,,,-99.99,,2013-04-23 21:21:00,
2013-04-23 14:32:00,47.0,23.0,-100.00,NW,319,4.0,5.0,39,-99.99,,,-99.99,,2013-04-23 21:32:00,
2013-04-23 14:43:00,48.0,27.0,-100.00,NW,313,3.0,5.0,43,-99.99,,,-99.99,,2013-04-23 21:43:00,
2013-04-23 14:52:00,48.0,25.0,-100.00,NW,320,3.0,5.0,41,-99.99,,,-99.99,,2013-04-23 21:52:00,
2013-04-23 15:03:00,48.0,25.0,-100.00,NW,320,3.0,5.0,41,-99.99,,,-99.99,,2013-04-23 22:03:00,
2013-04-23 15:12:00,50.0,22.0,-100.00,NW,305,3.0,4.0,33,-99.99,,,-99.99,,2013-04-23 22:12:00,
2013-04-23 15:22:00,48.0,23.0,-100.00,NW,306,3.0,5.0,37,-99.99,,,-99.99,,2013-04-23 22:22:00,
2013-04-23 15:33:00,48.0,23.0,-100.00,NW,306,3.0,5.0,37,-99.99,,,-99.99,,2013-04-23 22:33:00,
2013-04-23 15:42:00,48.0,22.0,-100.00,NW,318,3.0,5.0,36,-99.99,,,-99.99,,2013-04-23 22:42:00,
2013-04-23 15:52:00,50.0,24.0,-100.00,WNW,301,3.0,5.0,36,-99.99,,,-99.99,,2013-04-23 22:52:00,
2013-04-23 16:02:00,50.0,24.0,-100.00,WNW,301,3.0,5.0,36,-99.99,,,-99.99,,2013-04-23 23:02:00,
2013-04-23 16:12:00,49.0,23.0,-100.00,NNW,329,2.0,5.0,35,-99.99,,,-99.99,,2013-04-23 23:12:00,
2013-04-23 16:22:00,50.0,21.0,-100.00,WNW,302,2.0,4.0,32,-99.99,,,-99.99,,2013-04-23 23:22:00,
2013-04-23 16:32:00,50.0,22.0,-100.00,NW,311,2.0,4.0,33,-99.99,,,-99.99,,2013-04-23 23:32:00,
2013-04-23 16:42:00,51.0,16.0,-100.00,WNW,292,1.0,2.0,24,-99.99,,,-99.99,,2013-04-23 23:42:00,
2013-04-23 16:52:00,51.0,19.0,-100.00,NW,305,2.0,3.0,28,-99.99,,,-99.99,,2013-04-23 23:52:00,
2013-04-23 17:01:00,51.0,19.0,-100.00,NW,305,2.0,3.0,28,-99.99,,,-99.99,,2013-04-24 00:01:00,
2013-04-23 17:11:00,53.0,19.0,-100.00,ESE,121,1.0,3.0,26,-99.99,,,-99.99,,2013-04-24 00:11:00,
2013-04-23 17:21:00,50.0,21.0,-100.00,NW,308,2.0,3.0,32,-99.99,,,-99.99,,2013-04-24 00:21:00,
2013-04-23 17:32:00,50.0,21.0,-100.00,NW,308,2.0,3.0,32,-99.99,,,-99.99,,2013-04-24 00:32:00,
2013-04-23 17:41:00,52.0,21.0,-100.00,NW,318,0.0,1.0,29,-99.99,,,-99.99,,2013-04-24 00:41:00,
2013-04-23 17:51:00,53.0,19.0,-100.00,WSW,243,1.0,5.0,26,-99.99,,,-99.99,,2013-04-24 00:51:00,
2013-04-23 18:01:00,52.0,17.0,-100.00,WNW,294,2.0,5.0,25,-99.99,,,-99.99,,2013-04-24 01:01:00,
2013-04-23 18:11:00,52.0,17.0,-100.00,WNW,294,2.0,5.0,25,-99.99,,,-99.99,,2013-04-24 01:11:00,
2013-04-23 18:21:00,53.0,17.0,-100.00,WNW,296,3.0,5.0,24,-99.99,,,-99.99,,2013-04-24 01:21:00,
2013-04-23 18:32:00,53.0,27.0,-100.00,NW,308,3.0,5.0,36,-99.99,,,-99.99,,2013-04-24 01:32:00,
2013-04-23 18:42:00,54.0,30.0,-100.00,North,3,2.0,4.0,40,-99.99,,,-99.99,,2013-04-24 01:42:00,
2013-04-23 18:52:00,54.0,30.0,-100.00,North,3,2.0,4.0,40,-99.99,,,-99.99,,2013-04-24 01:52:00,
2013-04-23 19:13:00,52.0,22.0,-100.00,NW,323,2.0,3.0,30,-99.99,,,-99.99,,2013-04-24 02:13:00,
2013-04-23 19:26:00,52.0,25.0,-100.00,North,1,2.0,5.0,34,-99.99,,,-99.99,,2013-04-24 02:26:00,
2013-04-23 19:45:00,55.0,26.0,-100.00,SW,227,4.0,8.0,33,-99.99,,,-99.99,,2013-04-24 02:45:00,
2013-04-23 19:54:00,54.0,29.0,-100.00,SW,233,2.0,6.0,38,-99.99,,,-99.99,,2013-04-24 02:54:00,
2013-04-23 20:24:00,53.0,32.0,-100.00,SW,232,8.0,13.0,45,-99.99,,,-99.99,,2013-04-24 03:24:00,
2013-04-23 20:36:00,53.0,32.0,-100.00,SW,232,8.0,13.0,45,-99.99,,,-99.99,,2013-04-24 03:36:00,
2013-04-23 20:46:00,53.0,32.0,-100.00,SW,232,8.0,13.0,45,-99.99,,,-99.99,,2013-04-24 03:46:00,
2013-04-23 20:54:00,53.0,32.0,-100.00,SW,232,8.0,13.0,45,-99.99,,,-99.99,,2013-04-24 03:54:00,
2013-04-23 21:03:00,50.0,31.0,-100.00,ESE,112,3.0,4.0,48,-99.99,,,-99.99,,2013-04-24 04:03:00,
2013-04-23 21:12:00,49.0,30.0,-100.00,ESE,110,3.0,4.0,48,-99.99,,,-99.99,,2013-04-24 04:12:00,
2013-04-23 21:22:00,48.0,29.0,-100.00,ESE,123,4.0,5.0,47,-99.99,,,-99.99,,2013-04-24 04:22:00,
2013-04-23 21:33:00,47.0,28.0,-100.00,ESE,112,4.0,6.0,47,-99.99,,,-99.99,,2013-04-24 04:33:00,
2013-04-23 21:43:00,48.0,29.0,-100.00,ESE,121,4.0,5.0,47,-99.99,,,-99.99,,2013-04-24 04:43:00,
2013-04-23 21:52:00,48.0,29.0,-100.00,ESE,121,4.0,5.0,47,-99.99,,,-99.99,,2013-04-24 04:52:00,
2013-04-23 22:02:00,47.0,28.0,-100.00,SE,128,4.0,5.0,47,-99.99,,,-99.99,,2013-04-24 05:02:00,
2013-04-23 22:12:00,46.0,26.0,-100.00,SE,130,4.0,5.0,46,-99.99,,,-99.99,,2013-04-24 05:12:00,
2013-04-23 22:21:00,46.0,26.0,-100.00,ESE,123,4.0,5.0,45,-99.99,,,-99.99,,2013-04-24 05:21:00,
2013-04-23 22:32:00,46.0,26.0,-100.00,SE,130,4.0,5.0,45,-99.99,,,-99.99,,2013-04-24 05:32:00,
2013-04-23 22:42:00,46.0,26.0,-100.00,ESE,123,4.0,4.0,46,-99.99,,,-99.99,,2013-04-24 05:42:00,
2013-04-23 22:51:00,46.0,26.0,-100.00,SE,130,5.0,6.0,46,-99.99,,,-99.99,,2013-04-24 05:51:00,
2013-04-23 23:02:00,46.0,26.0,-100.00,SE,126,4.0,5.0,46,-99.99,,,-99.99,,2013-04-24 06:02:00,
2013-04-23 23:11:00,45.0,25.0,-100.00,SE,124,4.0,5.0,46,-99.99,,,-99.99,,2013-04-24 06:11:00,
2013-04-23 23:21:00,45.0,25.0,-100.00,ESE,123,4.0,5.0,46,-99.99,,,-99.99,,2013-04-24 06:21:00,
2013-04-23 23:32:00,45.0,26.0,-100.00,SE,145,2.0,3.0,48,-99.99,,,-99.99,,2013-04-24 06:32:00,
2013-04-23 23:42:00,44.0,27.0,-100.00,SE,134,3.0,4.0,50,-99.99,,,-99.99,,2013-04-24 06:42:00,
2013-04-23 23:51:00,45.0,27.0,-100.00,SSE,147,2.0,3.0,48,-99.99,,,-99.99,,2013-04-24 06:51:00,